Location: Arboyeti
(42.1122°N, 44.6017°E)
Time: 16:26:04
(UTC+00:00)

Spot 1 - Pass Details

Date: 19 April 2021
Orbit: 576 x 776 km, 98.7° (Epoch: 06 May)

Event Time Altitude Azimuth Distance (km) Brightness Sun altitude
Exits shadow 23:46:44 76° 343° (NNW) 617 4.0 -24.2°
Drops below altitude 10° 23:50:42 10° 346° (NNW) 1,977 7.0 -23.7°
Sets 23:52:56 0° 347° (NNW) 2,914 7.9 -23.4°
